{"data":{"norad_id":47288,"epoch":"2026-05-25T03:10:48.424224Z","epoch_age_seconds":59547,"freshness":"FRESH","line1":"1 47288U 20100AG  26145.13250491 -.00000005  00000+0 -50240-4 0  9996","line2":"2 47288  87.8953 355.2548 0001701  99.8879 260.2441 13.12440699261649","mean_motion":13.12440699,"eccentricity":0.0001701,"inclination_deg":87.8953,"raan_deg":355.2548,"arg_perigee_deg":99.8879,"mean_anomaly_deg":260.2441,"bstar":-5.024e-5,"rev_number":26164,"period_min":109.71924301778,"perigee_km":1212.4407875783,"apogee_km":1215.0235414681,"semimajor_km":7591.8691645232,"source":"CELESTRAK","updated_at":"2026-05-25T13:38:22.385904Z"}}